User: anonymous
Location: Slidell
(30.2789°N, 89.7378°W)
Time: 15:24:09
(UTC-05:00)
Language:

Cosmos 2360 Rocket - Orbit

View from above orbital plane
View from above orbital plane
View from above satellite
View from above satellite

Ground track
Ground track

The orbit data is extracted from the following two-line orbital elements,

1 25407U 98045B   14265.51666006 -.00000201  00000-0 -78028-4 0  5712
2 25407 071.0132 339.9718 0010211 286.3868 164.4117 14.15670816834840
Epoch (UTC): 22 September 2014 12:23:59
Eccentricity: 0.0010211
inclination: 71.0132°
perigee height: 832 km
apogee height: 847 km
right ascension of ascending node: 339.9718°
argument of perigee: 286.3868°
revolutions per day: 14.15670816
mean anomaly at epoch: 164.4117°
orbit number at epoch: 83484

The dashed part of the orbit path shows where the satellite is in the earth's shadow,  

DLR